STARLINK-3160 (49454 NORAD) Tracking and Keplerian Element Data

This shows tracking and keplerian element data for the satellite.

Feedback or suggestion? Click here.




ElementValue
Catalog49454
NameSTARLINK-3160
Epoch Orbit369
Epoch Day15.91668981
Epoch Year2022
RAAN180.2353
Inclination53.2173
Eccentricity0.0001726
Argument of Perigee36.923
Mean Anonmoly104.5305
Mean Motion15.54689543
Decay Rate-0.00649321
L11 49454U 21104AY 22015.91668981 -.00649321 00000+0 -10428-1 0 9994
L22 49454 53.2173 180.2353 0001726 36.9230 104.5305 15.54689543 3696

Live tracking and technical data element details for STARLINK-3160 (NORAD 49454). STARLINK-3160 can be tracked NOW for your location showing map with azimuth and elevation plus other details from your city location.

Track the satellite on the map from your city or location and see movement details for azimuth, elevation, latitude, longitude, range, height, and movement on the map or in text.







IsCatalogInMostPopularTable: catalog: 49454, numindb: 6
Update: records affected: 1



GetName: 49454 STARLINK-3160

Hit Count: updated at: Thu, 20 Jan 2022 16:52:41 GMT